Regional Weather Roundup
Issued by NWS Midland/Odessa, TX

Skip options and go directly to product.
Home | Oldest Version | Previous Version | Current Version | All | Text Only | Save Text | Print | Product List | Glossary On

Skip product version selection by date and time.   
612
ASUS44 KMAF 121810
RWRMAF
MIDLAND AREA WEATHER ROUNDUP
NATIONAL WEATHER SERVICE MIDLAND TX
1200 PM CST FRI FEB 12 2016

...IN SOUTHWEST TEXAS AND SOUTHEAST NEW MEXICO...

CITY           SKY/WX    TMP DP  RH WIND       PRES   REMARKS
ALPINE         SUNNY     72  13  10 CALM      30.39F
ANDREWS        FAIR      69  26  20 S6        30.31F
ARTESIA        SUNNY     59  27  29 N13G21    30.34S
BIG SPRING     SUNNY     63  32  31 E3        30.33S
CARLSBAD       SUNNY     59  23  25 N15       30.33F
DRYDEN           N/A     75  25  15 VRB5      30.26S
FORT STOCKTON  SUNNY     67  26  21 NE6       30.30F
GUAD PASS      SUNNY     64  12  13 E6        30.38S
HOBBS          SUNNY     64  23  20 S7        30.32F
MARFA          SUNNY     70   8   9 VRB6      30.37F
MIDLAND AIRPK  SUNNY     68  32  25 E6        30.32S
MIDLAND INTL   SUNNY     68  31  25 E6        30.31S
ODESSA         SUNNY     68  29  23 CALM      30.31S
PECOS          SUNNY     62  27  26 NW9       30.31F
PRESIDIO       FAIR      64  21  18 CALM      30.31F
SEMINOLE       SUNNY     66  28  23 S6        30.33S
SNYDER           N/A     63  33  32 E8        30.33S
WINK           SUNNY     64  28  25 CALM      30.30S
$$
...OTHER STATIONS IN TEXAS...

CITY           SKY/WX    TMP DP  RH WIND       PRES   REMARKS
ABILENE        SUNNY     62  37  39 N5        30.31F
AMARILLO       SUNNY     60  28  29 E15       30.37S
AUSTIN         SUNNY     74  39  28 N6        30.25S
BROWNSVILLE    SUNNY     76  58  53 S14       30.24S
CORPUS CHRISTI MOSUNNY   78  58  49 S9        30.22F
DALLAS FTW     SUNNY     62  37  39 N9        30.30S
DEL RIO        SUNNY     72  32  23 W3        30.23F
EL PASO        SUNNY     63  14  15 CALM      30.34S
HOUSTON INT    MOSUNNY   71  58  63 W9        30.26S
LUBBOCK        SUNNY     63  28  26 E6        30.33S
SAN ANGELO     SUNNY     67  35  30 E10       30.30S
SAN ANTONIO    SUNNY     74  47  38 VRB3      30.24F
WACO           SUNNY     68  42  38 NE9       30.27S
WICHITA FALLS  NOT AVBL
$$
...OTHER LOCATIONS IN NEW MEXICO...

CITY           SKY/WX    TMP DP  RH WIND       PRES   REMARKS
ALAMAGORDO     SUNNY     63  14  15 CALM      30.33F
ALBUQUERQUE    SUNNY     52  21  29 NW6       30.41S
CANNON AFB     SUNNY     60  25  26 E15       30.34R
CLOVIS         SUNNY     61  28  29 E16       30.36S
HOLLOMAN AFB   SUNNY     64  14  14 S2        30.31F
ROSWELL        SUNNY     61  24  24 N10       30.33F
RUIDOSO          N/A     61   9  12 W3        30.42S
SANTA FE       SUNNY     51  18  27 NE13      30.41F
TRUTH OR CONSE SUNNY     59  16  18 NE6       30.37F
TUCUMCARI      SUNNY     59  22  24 E13       30.36F
$$

USA.gov is the U.S. government's official web portal to all federal, state and local government web resources and services.